Bangor, ME

7:23 AM EST on February 27, 2017 (GMT -0500)
Bangor International

Weather History for KBGR - December, 2013

Change the Weather History Date:

Wednesday, December 11, 2013

  Actual Average Record
Temperature  
Mean Temperature 17 °F 26 °F  
Max Temperature 27 °F 35 °F 59 °F (1966)
Min Temperature 7 °F 18 °F -19 °F (1929)
Degree Days  
Heating Degree Days 48 38  
Month to date heating degree days 403 398  
Since 1 July heating degree days 1988 2067  
Cooling Degree Days 0 0  
Month to date cooling degree days 0 0  
Year to date cooling degree days 355 318  
Moisture  
Dew Point 8 °F    
Average Humidity 65    
Maximum Humidity 88    
Minimum Humidity 42    
Precipitation  
Precipitation T in 0.12 in 1.81 in (1993)
Month to date precipitation 0.86 1.42  
Year to date precipitation 37.99 39.87  
Snow  
Snow T in 0.40 in 3.00 in (1994)
Month to date snowfall 6.0 4.2  
Since 1 July snowfall 6.7 6.6  
Snow Depth 1.00 in    
Sea Level Pressure  
Sea Level Pressure 30.02 in    
Wind  
Wind Speed 6 mph (WSW)    
Max Wind Speed 21 mph    
Max Gust Speed 27 mph    
Visibility 10 miles    
Events      
T = Trace of Precipitation, MM = Missing Value Source: NWS Daily Summary

Daily Weather History Graph

Daily Weather History Graph

Search for Another Location

Airport or City:

Trip Planner

Search our weather history database for the weather conditions in past years. The results will help you decide how hot, cold, wet, or windy it might be!

Date:

Astronomy

Dec. 11, 2013 Rise Set
Actual Time 7:02 AM EST 3:54 PM EST
Civil Twilight 6:29 AM EST 4:27 PM EST
Nautical Twilight 5:52 AM EST 5:04 PM EST
Astronomical Twilight 5:16 AM EST 5:40 PM EST
Moon 12:36 PM EST (12/11) 1:08 AM EST (12/11)
Length of Visible Light 9h 58m
Length of Day
8h 51m
Waxing Gibbous, 71% of the Moon is Illuminated
Dec 11
Waxing Gibbous
Dec 17
Full
Dec 25
Last Quarter
Jan 1
New
Jan 7
First Quarter

Hourly Weather History & Observations

Time (EST) Temp. Windchill Dew Point Humidity Pressure Visibility Wind Dir Wind Speed Gust Speed Precip Events Conditions
12:53 AM 17.1 °F 10.0 °F 7.0 °F 65% 29.88 in 10.0 mi SW 4.6 mph - N/A   Clear
1:53 AM 12.9 °F 6.9 °F 5.0 °F 71% 29.93 in 10.0 mi West 3.5 mph - N/A   Clear
2:53 AM 15.1 °F 9.4 °F 3.9 °F 61% 29.95 in 10.0 mi West 3.5 mph - N/A   Clear
3:53 AM 10.9 °F 2.9 °F 5.0 °F 77% 29.97 in 10.0 mi SW 4.6 mph - N/A   Clear
4:53 AM 12.9 °F 5.2 °F 5.0 °F 71% 29.99 in 10.0 mi WSW 4.6 mph - N/A   Clear
5:53 AM 7.0 °F -1.7 °F 3.0 °F 84% 30.02 in 10.0 mi WSW 4.6 mph - N/A   Scattered Clouds
6:53 AM 10.9 °F 2.9 °F 6.1 °F 81% 30.04 in 10.0 mi South 4.6 mph - N/A   Partly Cloudy
7:53 AM 15.1 °F 5.2 °F 8.1 °F 74% 30.05 in 10.0 mi South 6.9 mph - N/A   Clear
8:53 AM 19.0 °F 9.0 °F 8.1 °F 62% 30.07 in 10.0 mi SSW 8.1 mph - N/A   Clear
9:53 AM 24.1 °F 14.4 °F 9.0 °F 53% 30.06 in 10.0 mi SW 9.2 mph - N/A   Clear
10:53 AM 26.1 °F 13.1 °F 8.1 °F 47% 30.05 in 10.0 mi WSW 17.3 mph 27.6 mph N/A   Partly Cloudy
11:53 AM 27.0 °F 14.7 °F 10.0 °F 49% 30.03 in 10.0 mi WSW 16.1 mph 23.0 mph N/A   Partly Cloudy
12:53 PM 26.1 °F 16.8 °F 7.0 °F 44% 30.01 in 10.0 mi West 9.2 mph - N/A   Mostly Cloudy
1:53 PM 26.1 °F 16.8 °F 8.1 °F 47% 30.01 in 10.0 mi West 9.2 mph 20.7 mph N/A   Scattered Clouds
2:53 PM 27.0 °F 20.5 °F 10.0 °F 49% 30.02 in 10.0 mi West 5.8 mph - N/A   Mostly Cloudy
3:53 PM 25.0 °F 19.3 °F 7.0 °F 46% 30.03 in 10.0 mi SW 4.6 mph - N/A   Partly Cloudy
4:53 PM 23.0 °F 15.8 °F 9.0 °F 55% 30.03 in 10.0 mi SSW 5.8 mph - N/A   Scattered Clouds
5:53 PM 19.9 °F - 10.0 °F 65% 30.04 in 10.0 mi Calm Calm - N/A   Scattered Clouds
6:53 PM 17.1 °F 11.7 °F 10.9 °F 77% 30.06 in 10.0 mi West 3.5 mph - N/A   Mostly Cloudy
7:53 PM 21.0 °F 16.2 °F 12.0 °F 68% 30.06 in 10.0 mi West 3.5 mph - 0.00 in   Overcast
8:53 PM 19.0 °F 12.3 °F 12.0 °F 74% 30.07 in 10.0 mi West 4.6 mph - N/A   Overcast
9:53 PM 19.9 °F 13.4 °F 9.0 °F 62% 30.07 in 10.0 mi Variable 4.6 mph - N/A   Overcast
10:53 PM 19.0 °F 12.3 °F 3.9 °F 52% 30.07 in 10.0 mi WNW 4.6 mph - N/A   Mostly Cloudy
11:53 PM 16.0 °F - 6.1 °F 65% 30.08 in 10.0 mi Calm Calm - N/A   Clear